Location: ????????
(38.2929°N, 23.7911°E)
Time: 18:40:58
(UTC+00:00)

Daily predictions for brighter satellites

Satellite Brightness Start Highest point End
(mag) Time Altitude Azimuth Time Altitude Azimuth Time Altitude Azimuth
Cosmos 1980 Rocket 2.7 17:52:20 10° NNW 17:57:54 63° WSW 18:03:28 10° S
CSL-04 Debris 4.4 17:53:26 10° S 17:58:55 78° WSW 18:04:26 10° NNW
Cosmos 1842 Rocket 4.0 18:00:19 10° NNW 18:04:47 69° W 18:09:13 10° S
Cosmos 2221 3.1 18:01:04 10° NNW 18:05:21 62° W 18:09:39 10° S
CSL-04 Rocket 4.0 18:01:25 10° S 18:06:48 72° WSW 18:12:09 10° NNW
Cosmos 1933 4.3 18:03:44 10° NNE 18:07:18 30° ENE 18:10:51 10° SE
Cosmos 1782 4.4 18:06:31 10° NNE 18:09:22 18° ENE 18:12:02 11° ESE
Cosmos 2333 Rocket 4.4 18:09:21 10° NE 18:10:19 10° NE 18:11:18 10° ENE
SL-27 R/B 3.8 18:09:32 10° SSE 18:12:17 21° E 18:15:04 10° NE
Cosmos 1689 Rocket 2.0 18:09:42 10° N 18:12:27 76° W 18:15:10 10° SSW
Cosmos 2322 Rocket 3.0 18:08:18 10° N 18:13:26 35° ENE 18:18:14 11° SE
Cosmos 923 Rocket 4.0 18:11:38 10° SSW 18:16:58 81° ESE 18:22:20 10° NNE
CZ-4 R/B 4.3 18:14:53 10° SW 18:17:41 17° W 18:20:29 10° NW
Meteor 2-15 4.4 18:17:24 10° N 18:23:25 66° E 18:29:26 10° SSE
Cosmos 2219 Rocket 4.3 18:23:27 10° NNE 18:24:52 11° NE 18:26:17 10° ENE
OBJECT-B 1.4 18:21:55 10° S 18:25:03 56° W 18:28:14 10° NNW
Atlas Centaur 2 3.6 18:22:22 10° WSW 18:26:19 20° SSW 18:29:40 10° SSE
Resurs 1-3 3.7 18:23:27 10° SSE 18:27:44 58° ENE 18:32:03 10° N
SJ-6B 3.0 18:25:23 10° S 18:29:04 69° W 18:32:49 10° NNW
ATLAS 5 CENTAUR R/B 4.5 18:28:24 10° NNE 18:30:38 12° NE 18:32:57 10° ENE
NOSS 2-1 (E) 3.0 18:28:41 10° SW 18:32:06 78° WNW 18:35:23 10° NNE
Cosmos 1092 Rocket 4.0 18:27:56 10° S 18:34:10 73° E 18:40:29 10° N
USA 276 3.1 18:34:53 10° WNW 18:37:50 38° SW 18:39:43 18° SSE
Cosmos 2026 Rocket 4.0 18:31:44 10° S 18:37:57 62° E 18:44:06 10° NNE
USA 186 3.8 18:38:07 10° SSW 18:40:24 22° W 18:42:33 10° NW
Meteor 2-15 Rocket 4.4 18:38:56 10° N 18:45:02 77° E 18:51:04 10° SSE
SL-16 R/B 2.2 18:41:23 10° NNW 18:47:05 89° ENE 18:51:40 16° SSE
IGS 5A 3.6 18:46:46 21° SSE 18:49:21 56° ENE 18:53:25 10° N
Cosmos 1680 Rocket 3.9 18:44:13 10° SSW 18:49:27 68° WNW 18:54:42 10° NNE
CZ-2C R/B 4.4 18:46:39 10° NE 18:50:37 31° E 18:52:13 24° SE
Meteor 1-26 Rocket 4.2 18:45:04 10° N 18:50:54 78° E 18:55:44 14° SSE
Cosmos 2112 Rocket 4.2 18:45:58 10° SSW 18:51:16 78° WNW 18:56:33 10° NNE
Lacrosse 5 3.5 18:54:47 16° E 18:54:47 16° E 18:56:25 10° ENE
GP-B 3.5 18:49:58 10° NNE 18:54:12 42° E 18:56:12 26° SE
Cosmos 1371 Rocket 4.3 18:49:05 10° N 18:54:21 53° ENE 18:57:20 25° SE
Okean 3 Rocket 3.6 18:53:03 13° S 18:57:03 65° E 19:01:33 10° NNE
Cosmos 1151 Rocket 3.2 18:52:51 10° N 18:57:09 53° E 18:59:15 28° SE
MetOp-B 4.5 18:55:13 23° SE 18:58:14 48° ENE 19:03:23 10° N
BREEZE-M DEB (TANK) 4.4 18:55:54 10° W 18:59:19 44° N 19:09:58 10° ENE
Cosmos 1271 Rocket 3.3 18:58:55 10° NNW 19:02:52 60° W 19:05:53 16° S
Cosmos 2237 4.2 18:59:25 10° NNW 19:05:09 72° ENE 19:08:19 27° SE
ATLAS 3B R/B 4.3 18:59:10 10° NW 19:05:18 31° WSW 19:11:35 10° SSW
COSMOS 2455 2.8 19:00:51 10° S 19:06:42 58° ESE 19:12:36 10° NE
ERS-2 2.9 19:05:40 10° N 19:09:13 52° WNW 19:12:44 10° SSW
COSMOS 2428 4.3 19:05:36 10° N 19:09:46 20° NE 19:11:51 17° E
COSMOS 2487 4.0 19:12:29 21° ENE 19:12:29 21° ENE 19:14:02 10° NE
Cosmos 1809 Rocket 4.4 19:05:29 10° S 19:11:37 78° E 19:17:45 10° N
Cosmos 1515 Rocket 4.4 19:10:08 10° NNE 19:14:07 32° ENE 19:14:36 32° E
Ariane Rocket 3.7 19:10:56 13° S 19:15:22 52° W 19:20:18 10° NNW
Terra 3.5 19:15:37 18° ENE 19:16:13 18° ENE 19:19:23 10° NNE
Cosmos 220 Rocket 4.2 19:15:26 10° NNW 19:19:47 67° WSW 19:21:43 32° S
Cosmos 292 Rocket 4.1 19:15:39 10° N 19:20:17 48° ENE 19:21:28 39° ESE
Cosmos 2360 Rocket 2.1 19:14:48 10° NNW 19:20:27 74° ENE 19:22:50 36° SE
SPOT 3 Rocket 3.5 19:19:12 29° SSE 19:21:59 88° WSW 19:27:14 10° NNW
Cosmos 1328 Rocket 3.4 19:18:52 10° N 19:23:18 80° E 19:24:39 44° SSE
Cosmos 1766 Rocket 4.1 19:19:37 10° SSW 19:23:53 57° W 19:28:11 10° N
Cosmos 2266 Rocket 4.3 19:25:10 35° SE 19:27:02 45° E 19:32:56 10° NNE
Cosmos 1174 3.8 19:24:25 10° NNW 19:26:57 46° NNE 19:26:57 46° NNE
Resurs 01 Rocket 2.3 19:27:41 24° SSW 19:30:04 50° W 19:34:26 10° NNW
Cosmos 1624 Rocket 4.0 19:27:09 10° NNW 19:32:22 77° WSW 19:34:25 38° S
Meteor 2-6 Rocket 4.0 19:26:59 10° N 19:32:23 78° E 19:34:17 42° SSE
Cosmos 1553 Rocket 3.9 19:29:01 10° N 19:35:08 86° E 19:37:59 34° S
Meteor 2-21 Rocket 4.3 19:32:26 28° S 19:35:56 77° E 19:42:06 10° N
Cosmos 1420 Rocket 3.9 19:32:09 10° NNW 19:37:29 77° ENE 19:38:52 50° SE
Gbstr 26 Del rocket 4.4 19:35:52 10° W 19:38:51 22° SW 19:39:12 22° SW
ERS-1 Rocket 3.3 19:40:14 43° E 19:40:50 45° ENE 19:45:36 10° N
Cosmos 1862 3.8 19:40:34 35° SW 19:41:58 56° W 19:45:53 10° N
Cosmos 1812 3.0 19:39:48 10° NNW 19:43:37 61° W 19:44:03 56° SW
Cosmos 2297 Rocket 4.2 19:49:40 13° ENE 19:49:40 13° ENE 19:50:43 10° ENE
Cosmos 2228 Rocket 4.3 19:46:11 10° NNE 19:49:24 30° ENE 19:49:24 30° ENE
SPOT 5 2.8 19:52:44 55° ENE 19:52:44 55° ENE 19:56:54 10° N
ARIANE 5 R/B 2.5 19:54:19 74° ENE 19:54:19 74° ENE 19:58:44 10° N
Cosmos 2333 Rocket 2.1 19:50:01 10° NNW 19:55:40 69° ENE 19:56:32 59° ESE
BREEZE-M DEB (TANK) 3.4 19:52:21 10° WNW 19:56:11 63° SW 19:58:29 43° SSE
Cosmos 2322 Rocket 3.7 19:52:31 10° NW 19:57:19 29° WSW 20:00:03 20° SW
Cosmos 2237 Rocket 4.0 19:53:56 10° N 19:57:46 18° NE 19:58:46 17° ENE
Cosmos 2322 3.7 19:53:00 10° NNW 19:58:44 69° ENE 19:59:34 60° ESE
Cosmos 2227 Rocket 4.4 20:03:02 12° ENE 20:03:02 12° ENE 20:03:32 10° ENE
BREEZE-M R/B 2.9 19:56:17 10° WSW 20:01:26 65° NNW 20:02:47 34° NE
Cosmos 1500 Rocket 3.5 20:03:07 81° NNW 20:03:07 81° NNW 20:07:24 10° N
Cosmos 1452 Rocket 3.5 19:58:43 10° NNW 20:03:58 66° ENE 20:04:09 65° E
S3M 4.1 20:03:18 10° N 20:09:43 77° W 20:11:31 49° SSW
Cosmos 2219 Rocket 2.0 20:04:13 10° NNW 20:09:48 74° ENE 20:10:11 71° E
Spot 2 Rocket 3.8 20:14:04 52° SW 20:14:44 57° W 20:19:46 10° NNW
Sich 1 4.4 20:16:31 31° NE 20:16:31 31° NE 20:18:56 10° NNE
ATLAS 5 CENTAUR R/B 2.7 20:10:36 10° NNW 20:16:17 56° NE 20:17:08 52° E
Meteor 1-27 Rocket 3.6 20:12:45 10° N 20:18:30 89° ENE 20:18:58 77° SSE
Cosmos 1655 Rocket 4.5 20:19:07 32° SW 20:22:02 58° W 20:28:20 10° N
Cosmos 1743 Rocket 4.4 20:25:39 47° WNW 20:25:39 47° WNW 20:29:52 10° N
Cosmos 494 Rocket 4.1 20:31:20 67° WNW 20:31:20 67° WNW 20:36:27 10° NNE
Lacrosse 5 2.4 20:33:37 39° W 20:35:12 57° NW 20:40:12 10° NE
NOSS 3-1 (C) 4.4 20:31:08 10° NW 20:38:53 59° WSW 20:40:55 49° SSW
Meteor 1-25 Rocket 4.4 20:51:22 69° NW 20:51:22 69° NW 20:56:26 10° N
Terra 2.9 20:54:30 40° WNW 20:54:30 40° WNW 20:58:10 10° NNW
COSMOS 2428 3.1 20:48:51 10° NNW 20:53:52 55° W 20:53:52 55° W
USA 229 DEB 3.9 20:49:34 10° NW 20:57:00 70° WSW 20:57:36 67° SSW
USA 229 3.9 20:49:39 10° NW 20:57:06 71° WSW 20:57:42 68° SSW
Cosmos 2360 Rocket 4.5 21:01:10 10° WNW 21:03:41 13° W 21:04:37 13° WSW
USA 267 4.3 20:57:27 10° NE 21:00:52 32° ENE 21:00:52 32° ENE
Cosmos 2219 4.1 21:06:25 42° NE 21:06:25 42° NE 21:10:13 10° NNE
NOSS 3-1 (A) 4.4 21:09:58 10° NW 21:17:41 55° WSW 21:18:16 54° SW
Cosmos 1980 4.3 21:15:16 10° NNW 21:19:35 54° NNW 21:19:35 54° NNW
Cosmos 2297 Rocket 2.9 21:31:26 49° NNW 21:31:26 49° NNW 21:36:03 10° NNE
Cosmos 2333 Rocket 4.4 21:36:17 10° WNW 21:38:33 14° W 21:38:33 14° W
Cosmos 2237 Rocket 3.1 21:36:41 10° NNW 21:40:34 44° NW 21:40:34 44° NW
Cosmos 2227 Rocket 3.1 21:44:50 46° NNW 21:44:50 46° NNW 21:49:02 10° NNE
Cosmos 2263 Rocket 4.3 21:51:47 16° ENE 21:51:47 16° ENE 21:53:19 10° NE
Cosmos 1745 Rocket 4.4 21:50:35 59° NNW 21:50:35 59° NNW 21:55:45 10° N
ATLAS 5 CENTAUR R/B 4.2 21:55:50 10° WNW 21:58:38 22° W 21:58:38 22° W
SL-16 R/B 3.3 22:09:15 10° NNW 22:12:56 42° N 22:12:56 42° N
CZ-4C R/B 3.1 22:33:33 10° NNW 22:41:05 74° NE 22:41:11 74° ENE
ATLAS CENTAUR R/B 4.4 22:44:53 12° NNE 22:44:53 12° NNE 22:45:14 10° NNE
USA 267 4.1 22:40:35 10° NE 22:46:43 44° NW 22:48:10 39° WNW
SL-16 R/B 3.9 23:15:35 27° E 23:16:57 30° ENE 23:22:12 10° N
USA 234 3.3 23:18:04 72° NE 23:18:04 72° NE 23:24:30 10° NW
Cosmos 2263 Rocket 3.3 23:33:28 38° NNW 23:33:28 38° NNW 23:37:46 10° N
Cosmos 2344 3.5 23:34:40 65° WNW 23:35:05 66° NW 23:42:41 10° NNE
Nadezhda 3 Rocket 4.2 23:30:48 10° N 23:36:10 66° N 23:36:10 66° N
Cosmos 2341 Rocket 4.1 23:52:49 71° ENE 23:52:49 71° ENE 23:58:34 10° N
